Location: Newark
(45.5000°N, 11.4167°E)
Time: 13:09:22
(UTC+00:00)

Altair - Pass Details

Date: 01 September 2019
Orbit: 1501 x 1683 km, 47.2° (Epoch: 16 September)

Event Time Altitude Azimuth Distance (km) Brightness Sun altitude
Exits shadow 01:16:40 49° 252° (WSW) 2,028 7.7 -29.5°
Maximum altitude 01:20:02 89° 167° (SSE) 1,619 7.4 -29.2°
Drops below altitude 10° 01:29:41 10° 76° (ENE) 3,766 10.2 -28.1°
Sets 01:32:42 0° 76° (ENE) 4,727 10.8 -27.8°
